This is the latest recevied weather packets stored in our database for station/object DB0WUN-13. If no packets are shown the sender has not sent any weather packets the latest 10 day(s).
| Time | Temp. | Humidity | Pressure | Rain* | Wind** | Luminosity | Snow |
|---|---|---|---|---|---|---|---|
| 1777286834 | 13.33° C | 34% | 1022.1 hPa | 0 mm | - | 921 W/m² | - |
| 1777286778 | 13.33° C | 33% | 1022.2 hPa | 0 mm | - | 918 W/m² | - |
| 1777286725 | 13.33° C | 33% | 1022.2 hPa | 0 mm | - | 921 W/m² | - |
| 1777286649 | 13.33° C | 33% | 1022.2 hPa | 0 mm | - | 867 W/m² | - |
| 1777286589 | 13.33° C | 34% | 1022.2 hPa | 0 mm | - | 898 W/m² | - |
| 1777286547 | 13.33° C | 34% | 1022.1 hPa | 0 mm | - | 912 W/m² | - |
| 1777286511 | 13.33° C | 33% | 1022.2 hPa | 0 mm | - | 914 W/m² | - |
| 1777286459 | 13.33° C | 34% | 1022.2 hPa | 0 mm | - | 904 W/m² | - |
| 1777286409 | 13.33° C | 33% | 1022.1 hPa | 0 mm | - | 904 W/m² | - |
| 1777286369 | 13.33° C | 36% | 1022.1 hPa | 0 mm | - | 896 W/m² | - |
| 1777286318 | 13.33° C | 35% | 1022.2 hPa | 0 mm | - | 898 W/m² | - |
| 1777286281 | 13.33° C | 35% | 1022.2 hPa | 0 mm | - | 888 W/m² | - |
| 1777286110 | 13.33° C | 35% | 1022.2 hPa | 0 mm | - | 731 W/m² | - |
| 1777286044 | 13.33° C | 37% | 1022.2 hPa | 0 mm | - | 731 W/m² | - |
| 1777285985 | 13.33° C | 35% | 1022.2 hPa | 0 mm | - | 819 W/m² | - |
| 1777285923 | 13.33° C | 36% | 1022.3 hPa | 0 mm | - | 809 W/m² | - |
| 1777285862 | 13.33° C | 36% | 1022.2 hPa | 0 mm | - | 805 W/m² | - |
| 1777285797 | 13.33° C | 35% | 1022.3 hPa | 0 mm | - | 882 W/m² | - |
| 1777285734 | 13.33° C | 36% | 1022.3 hPa | 0 mm | - | 891 W/m² | - |
| 1777285676 | 13.33° C | 36% | 1022.3 hPa | 0 mm | - | 895 W/m² | - |
| 1777285617 | 13.33° C | 35% | 1022.4 hPa | 0 mm | - | 884 W/m² | - |
| 1777285555 | 13.33° C | 38% | 1022.3 hPa | 0 mm | - | 893 W/m² | - |
| 1777285488 | 13.33° C | 38% | 1022.4 hPa | 0 mm | - | 875 W/m² | - |
| 1777285428 | 13.33° C | 37% | 1022.3 hPa | 0 mm | - | 882 W/m² | - |
| 1777285367 | 13.33° C | 37% | 1022.4 hPa | 0 mm | - | 884 W/m² | - |
* Rain latest hour (hover to see other rain measurements)
** Current wind speed in m/s (hover to see current wind gust speed)